N950P KPIT-KBHB

Flight info

Callsign N950P
Flight time N/A
Altitude 7000
Route EWC ZORBO J584 SLT HNK J49 ALB ENE
Aircraft C208/L-SDFGRY/C

Departure

Time 2026-05-08 12:33
Airport Pittsburgh International Airport (KPIT)

Arrival

Time N/A
Airport Hancock County-Bar Harbor Airport (KBHB)
Time Latitude Longitude Altitude Speed Heading
2026-05-08 12:20 40.49565 -80.22098 1154 ft 0 kts 45°
2026-05-08 12:26 40.49567 -80.22093 1154 ft 2 kts 80°
2026-05-08 12:27 40.49532 -80.22092 1154 ft 10 kts 184°
2026-05-08 12:27 40.49454 -80.22044 1154 ft 16 kts 148°
2026-05-08 12:27 40.49345 -80.21944 1153 ft 22 kts 134°
2026-05-08 12:27 40.49241 -80.21809 1154 ft 16 kts 139°
2026-05-08 12:28 40.49164 -80.21723 1153 ft 18 kts 139°
2026-05-08 12:28 40.49047 -80.21586 1152 ft 27 kts 138°
2026-05-08 12:28 40.48921 -80.21447 1147 ft 21 kts 140°
2026-05-08 12:28 40.48824 -80.21283 1150 ft 22 kts 127°
2026-05-08 12:29 40.48731 -80.21112 1152 ft 18 kts 125°
2026-05-08 12:29 40.48663 -80.21067 1152 ft 7 kts 183°
2026-05-08 12:29 40.48653 -80.21068 1151 ft 0 kts 182°
2026-05-08 12:30 40.48650 -80.21068 1151 ft 4 kts 182°
2026-05-08 12:30 40.48568 -80.21158 1147 ft 31 kts 272°
2026-05-08 12:30 40.48570 -80.21431 1147 ft 62 kts 269°
2026-05-08 12:30 40.48592 -80.22184 1231 ft 94 kts 266°
2026-05-08 12:31 40.48547 -80.23084 1310 ft 102 kts 276°
2026-05-08 12:31 40.48638 -80.23909 1154 ft 75 kts 269°
2026-05-08 12:31 40.48649 -80.24270 1151 ft 0 kts 272°
2026-05-08 12:32 40.48648 -80.24378 1152 ft 35 kts 271°
2026-05-08 12:32 40.48663 -80.24950 1179 ft 83 kts 268°
2026-05-08 12:32 40.48660 -80.25729 1444 ft 86 kts 262°
2026-05-08 12:33 40.48646 -80.26514 1732 ft 95 kts 272°
2026-05-08 12:33 40.48706 -80.27426 2061 ft 102 kts 271°
2026-05-08 12:33 40.48759 -80.28347 2411 ft 101 kts 271°
2026-05-08 12:33 40.49108 -80.29142 2728 ft 108 kts 324°
2026-05-08 12:34 40.49848 -80.29360 3106 ft 115 kts
2026-05-08 12:34 40.50622 -80.29143 3510 ft 114 kts
2026-05-08 12:34 40.51401 -80.28958 3869 ft 113 kts
2026-05-08 12:34 40.52177 -80.28762 4224 ft 113 kts
2026-05-08 12:35 40.52955 -80.28566 4569 ft 114 kts 359°
2026-05-08 12:35 40.53726 -80.28375 4930 ft 112 kts 358°
2026-05-08 12:35 40.54491 -80.28182 5257 ft 111 kts 356°
2026-05-08 12:35 40.55253 -80.27992 5601 ft 112 kts 355°
2026-05-08 12:36 40.56018 -80.27803 5936 ft 112 kts 354°
2026-05-08 12:36 40.56776 -80.27616 6296 ft 110 kts 352°
2026-05-08 12:36 40.57528 -80.27425 6635 ft 110 kts 352°
2026-05-08 12:36 40.58288 -80.27235 6933 ft 112 kts 352°
2026-05-08 12:37 40.59125 -80.27050 7008 ft 134 kts 354°
2026-05-08 12:37 40.60116 -80.26801 7017 ft 155 kts 359°
2026-05-08 12:37 40.61186 -80.26508 7008 ft 161 kts 358°
2026-05-08 12:37 40.62277 -80.26227 7004 ft 158 kts 358°